COSMOS 1275 DEB, 12947

Orbit data source: Space-Track

COSMOS 1275 DEB, 12947 is space debris in LEO originally from a launch on Thu, 04 Jun 1981 UTC launched from the Plesetsk Missile And Space Complex (PKMTR). Debris objects in space refer to the collection of defunct objects orbiting the Earth. Examples of debris include non-operational satellites, rocket bodies, and fragments generated from explosions, collisions, or faulty payload assembly.

Loading next visibility...
Identifier
12947, 1981-053EB
Orbit
LEO
Country
Flag of CISCIS
Related business
Manufacturer
Unknown
Mission
Spacecraft
Bus & Motor
Unknown
Mass
Unknown
Launch date (UTC)
1981-06-04 (45 years ago)
Launch vehicle
Unknown
Launch site
Plesetsk Missile And Space Complex (PKMTR)
Object type
Payload
Rocket body
Debris
Shape & HBR
Unknown shape, 0.1 m
Radar Cross Section
Medium (>0.1 m² and <1 m²)

Expand to show TLE details & history
Last TLE update: 2 days ago

TLE from 2 days ago
0 COSMOS 1275 DEB
1 12947U 81053EB  26254.48695119  .00000312  00000-0  45506-3 0  9991
2 12947  83.0908  58.1497 0193122 302.9544 110.9048 13.45122608192739
Epoch: 2026-09-11T11:41Z
TLE epoch observation values (Epoch: 2026-09-11T11:41:12.582Z)
Latitude
55.39303°
Longitude
-97.60015°
Altitude
1,153.317 km
Speed
7.255 km/s
True Right ascension
04h 32m 50s
True Declination
55° 14' 26"
Sunlit
Object was in daylight at epoch
Visualization orbit readout
Latitude
Unknown
Longitude
Unknown
Altitude
Unknown
Speed
Unknown
Apparent Right ascension
Unknown
Apparent Declination
Unknown
Sunlit
N/A
Visualization observer readout
Local Sidereal Time
22:12:05
Azimuth
Unknown
Elevation
Unknown
Doppler factor
Unknown
Orbital elements
Apogee altitude
1,231.618 km
Perigee altitude
943.264 km
Semi-major axis
7,465.578 km
Eccentricity
0.01931
Inclination
83.0908°
RAAN
58.1497°
Arg. of periapsis
302.9544°
True anomaly
112.95404°
Mean anomaly
110.9048°
Eccentric anomaly
111.93123°
Mean motion
3.36471 °/min
Orbital period
106.99 mins
BSTAR
0.00045506
Loading maneuver chart data...
Computing Atmospheric mass density...
Loading historical data...
Loading historical data...
Loading historical data...
Loading historical data...
Loading historical data...
Loading historical data...
Loading historical data...

Documentation

Showing up to 5 results
|